Theta_e
311 309 306 306 303 303 303 300 298 292 291 293 292 294 292 291 290 287 287 290 291 292 293 293 293 293 293 293 293 293 293 294 294 294 295 295 294 294
311 310 307 307 302 301 298 298 298 298 292 294 292 291 291 290 289 287 287 289 290 291 291 291 292 292 293 293 293 293 294 294 294 295 295 295 295 295
311 310 308 307 301 299 299 297 296 294 293 288 290 289 289 287 287 287 287 284 285 288 290 290 291 291 291 292 292 293 293 293 293 293 294 294 294 294
311 308 308 304 302 301 299 297 296 293 291 287 287 286 286 287 286 285 285 285 284 288 289 290 290 291 291 291 292 292 292 292 292 292 292 292 292 293
311 309 307 303 300 299 298 296 294 293 291 287 285 286 285 286 285 285 285 282 282 286 288 289 289 290 290 291 291 291 291 290 290 291 291 290 291 291
310 309 306 303 301 298 295 294 291 289 288 286 284 283 284 283 283 283 281 282 282 281 283 283 285 287 289 290 290 289 288 289 289 289 289 289 289 290
304 303 302 300 297 296 295 293 290 288 286 285 283 283 282 280 281 282 282 281 281 282 281 281 281 281 282 286 286 286 286 286 286 286 287 287 288 288
299 296 296 290 293 293 294 293 291 288 286 285 283 283 283 282 282 281 281 280 280 280 278 279 279 280 281 281 284 284 284 285 285 286 286 286 287 287
295 291 290 288 288 291 291 291 291 291 290 287 285 285 283 283 282 280 281 282 282 278 278 279 278 278 281 279 282 282 283 284 284 285 285 285 286 286
291 291 291 288 289 288 287 286 286 287 288 286 287 285 285 284 284 283 282 280 279 278 278 278 277 277 279 279 280 280 281 282 282 283 283 284 284 285
289 290 290 288 289 290 287 285 284 284 288 288 288 289 288 287 284 282 281 281 280 278 277 277 276 276 277 276 277 279 281 281 281 282 283 283 283 283
286 287 286 288 289 289 286 285 284 283 283 283 284 286 286 285 285 284 282 282 281 277 277 276 275 275 276 277 276 276 276 279 281 280 281 281 281 277
286 285 286 289 289 290 289 286 286 284 285 284 283 282 282 281 281 281 282 283 280 280 277 278 275 275 275 275 275 276 276 276 276 277 279 279 279 279
286 286 286 289 290 290 287 288 288 286 285 283 282 281 281 281 280 280 280 280 279 280 278 278 277 275 274 274 273 274 274 275 275 275 275 277 278 278
285 286 287 289 290 289 287 288 285 284 283 282 281 280 281 282 280 278 278 277 277 277 277 277 277 275 274 273 272 272 273 274 275 274 273 273 273 273
286 286 287 287 287 286 285 285 284 284 283 282 281 281 280 279 278 278 276 277 276 274 274 275 275 275 274 274 273 271 272 270 271 273 272 271 272 273
285 285 285 285 284 284 284 283 283 283 283 283 281 279 279 279 278 279 277 277 277 274 272 272 273 273 273 273 272 271 270 270 272 271 269 267 269 271
285 284 284 284 284 283 282 281 282 283 283 282 281 280 279 277 276 277 277 276 276 274 275 274 272 271 271 271 274 269 269 268 269 268 267 264 264 268
284 284 283 284 284 284 283 283 282 283 283 282 281 279 279 277 276 275 275 275 274 273 273 272 270 269 266 265 269 275 266 266 265 263 264 263 263 267
285 284 284 284 284 284 283 280 280 281 281 280 279 278 277 276 275 274 274 274 273 272 270 269 269 268 265 265 264 267 274 265 263 262 262 263 267 273
279 279 280 281 280 279 278 278 277 276 276 275 275 276 276 275 274 273 271 271 271 269 268 268 268 267 266 266 263 263 266 273 269 262 261 261 262 260
274 273 274 275 275 275 274 274 273 273 273 272 272 272 272 272 270 269 268 268 268 267 267 267 267 266 265 264 261 260 262 265 269 272 273 271 262 259
270 271 271 271 272 273 273 272 272 271 270 270 269 269 269 268 269 268 267 267 266 265 265 266 265 264 262 261 260 259 259 260 261 262 262 272 273 273
Wind_Speed
13 13 11 9 6 6 5 5 5 6 6 6 4 7 6 5 7 7 6 12 13 11 10 8 8 10 9 9 8 7 7 8 8 9 10 9 8 8
11 14 14 11 9 7 5 4 3 4 3 3 3 4 7 6 8 7 7 10 13 11 12 10 10 11 12 12 10 10 10 9 9 10 11 10 10 11
14 15 16 14 10 9 8 8 8 6 6 2 2 2 5 6 6 5 5 5 5 13 13 12 11 12 12 13 12 12 11 10 10 10 11 12 12 10
18 17 17 12 17 14 12 14 11 10 6 6 4 3 3 7 6 7 5 4 5 8 13 13 13 13 13 14 14 12 12 12 11 11 11 12 12 11
19 18 18 16 16 12 13 13 11 8 8 4 4 3 2 4 4 4 5 5 4 8 11 13 13 14 14 14 13 13 13 12 12 12 12 12 12 12
18 18 16 18 19 17 15 15 11 10 9 5 4 4 3 2 3 4 4 3 3 4 7 8 8 9 12 13 12 12 11 11 11 11 12 12 12 13
13 13 15 17 24 21 13 12 12 11 10 8 5 4 4 4 7 4 2 3 2 3 2 3 3 3 4 9 8 8 9 10 9 10 11 12 12 12
14 12 11 11 15 22 22 23 21 14 11 8 6 7 8 4 3 5 3 3 3 2 3 2 2 2 3 2 5 6 8 8 7 7 8 9 10 11
9 7 6 6 7 10 12 21 20 24 20 14 13 9 7 8 7 4 3 4 3 2 2 2 1 2 2 0 3 4 6 6 6 6 6 7 8 8
8 10 11 10 13 14 12 11 10 10 10 8 9 8 6 9 9 6 4 8 4 3 1 2 1 2 2 1 2 0 3 4 4 4 4 5 6 7
6 9 11 9 16 21 14 12 11 7 8 11 11 13 14 17 14 8 4 7 3 3 3 1 2 1 1 2 3 4 4 3 3 3 6 7 7 8
2 6 8 12 21 25 15 14 12 11 11 8 7 11 12 13 15 5 9 7 4 2 3 4 2 2 2 1 2 2 1 2 4 3 6 6 7 3
6 5 6 18 23 25 19 13 12 14 16 10 9 8 7 7 5 4 5 5 5 2 5 3 2 2 1 2 1 2 1 1 2 4 6 5 5 6
6 4 4 15 19 20 13 17 20 16 10 9 9 8 8 7 6 5 6 5 4 4 8 2 2 1 1 1 1 1 2 1 1 2 2 4 8 8
1 5 13 18 17 15 16 18 17 8 8 9 8 7 6 7 9 6 7 6 6 4 3 4 3 3 1 0 0 0 1 1 1 0 1 2 3 3
4 4 7 9 10 10 11 13 7 7 8 8 8 7 7 7 6 5 4 5 4 3 4 3 1 1 2 3 2 3 2 2 2 2 1 1 2 3
4 4 4 6 8 8 7 7 8 8 7 7 8 8 8 7 7 5 6 5 3 5 3 2 2 2 1 1 2 2 2 2 0 1 1 2 2 3
3 4 4 4 6 7 7 6 6 7 6 7 8 8 8 8 7 6 6 5 5 3 4 3 2 2 2 3 9 2 2 1 1 0 2 2 3 3
2 5 5 5 5 6 7 7 5 5 8 7 8 8 7 7 8 6 5 5 4 5 4 3 2 1 1 1 1 9 1 2 2 2 2 2 3 5
3 5 5 5 6 6 7 8 8 8 7 7 8 7 7 7 7 6 5 5 6 4 4 2 1 2 2 1 1 2 4 1 2 3 3 3 5 16
7 7 6 6 7 8 8 8 9 8 8 8 7 7 6 6 6 5 5 6 6 3 4 4 2 4 1 2 0 3 2 5 5 4 3 2 4 3
7 7 6 6 8 8 8 9 9 8 8 7 6 6 6 6 6 6 5 5 4 3 3 3 3 2 2 3 3 3 3 3 5 12 11 10 3 4
7 7 8 8 7 7 7 8 8 7 7 7 7 6 6 6 5 5 5 4 4 4 2 2 2 2 1 2 2 3 5 4 3 3 3 10 12 15
Wind_Direction
210 209 206 210 198 186 190 172 153 176 201 203 182 185 178 180 153 164 193 193 209 211 225 232 245 257 258 260 264 273 276 283 290 297 303 303 304 306
208 207 205 210 190 185 167 171 176 165 200 112 199 154 167 176 167 171 191 172 207 212 228 230 242 255 264 266 268 272 276 282 293 297 295 295 298 302
210 211 209 201 193 189 183 178 188 159 188 98 105 134 156 166 155 188 166 165 196 214 227 233 241 251 261 267 272 273 277 280 284 291 295 295 294 292
212 209 210 196 200 193 192 193 191 173 139 170 160 147 173 181 165 181 187 186 198 205 222 233 241 249 255 262 268 273 276 280 281 283 284 291 294 289
215 210 212 199 201 198 195 193 177 170 162 145 142 118 98 164 167 170 179 188 202 219 229 236 243 252 257 262 270 271 271 274 276 277 277 282 288 284
220 218 210 205 205 198 192 183 163 161 159 143 120 131 131 162 169 172 190 188 188 191 223 235 245 252 257 261 265 273 279 278 280 281 283 279 282 281
219 219 212 212 211 195 182 186 173 159 151 159 131 132 162 172 195 169 169 124 190 179 142 206 215 209 235 247 251 268 269 277 285 286 282 280 280 282
218 210 209 187 189 188 185 173 165 157 160 173 153 170 188 180 137 152 145 123 206 73 134 252 157 195 208 215 247 267 279 287 291 290 284 282 281 281
224 208 208 184 177 176 173 162 166 160 168 170 176 185 175 175 143 134 190 129 118 123 98 241 184 215 166 198 274 298 295 295 295 292 290 294 289 285
198 203 211 186 175 164 159 160 163 163 165 177 176 161 159 152 158 155 170 104 88 91 135 240 179 218 123 187 22 225 142 108 67 42 14 338 322 313
205 192 185 204 179 170 160 161 147 133 126 123 124 141 146 145 133 123 128 118 132 170 185 214 157 187 156 138 140 180 112 28 69 6 339 329 324 316
198 196 192 184 172 164 158 157 158 152 141 119 120 126 133 142 137 128 143 146 118 175 176 181 160 186 162 140 143 176 305 328 338 356 334 335 335 335
196 184 181 191 181 175 167 164 166 151 154 146 133 124 123 123 120 107 129 131 147 143 174 157 164 148 84 87 142 184 89 8 334 340 349 354 354 339
210 184 174 188 183 179 152 152 149 153 148 149 140 144 147 148 143 135 130 97 76 99 156 129 111 150 133 140 218 146 226 262 295 339 15 337 339 338
99 178 173 175 172 172 154 150 142 149 151 149 153 154 156 131 119 111 100 95 82 74 96 116 118 129 80 251 28 252 291 230 229 89 21 333 335 336
162 156 168 152 140 133 143 141 134 146 162 155 143 136 120 133 140 139 135 148 130 105 46 45 114 143 180 201 209 256 231 265 176 226 28 334 269 253
118 127 148 149 148 148 144 137 132 137 146 136 138 136 132 135 134 132 131 140 144 140 134 106 66 350 327 320 264 234 251 256 117 73 23 296 296 275
148 156 158 170 154 142 132 124 127 141 142 131 132 136 136 134 137 131 135 141 135 119 119 119 146 196 193 238 213 242 265 221 267 230 259 250 286 275
175 136 127 136 126 124 126 141 139 130 118 123 124 123 126 125 136 128 124 120 113 115 101 112 152 147 165 220 146 198 197 293 351 314 247 238 246 279
69 96 117 121 131 127 117 110 108 104 101 102 103 107 114 129 127 126 131 134 136 124 124 120 148 138 160 204 337 282 324 178 233 261 278 281 265 286
32 49 52 72 84 91 96 95 93 89 92 94 91 101 112 115 108 109 105 109 117 133 143 140 105 93 57 48 281 266 273 297 255 202 240 274 273 265
37 47 47 61 75 87 91 94 94 93 96 96 98 96 97 104 119 126 127 133 125 128 103 110 144 163 182 184 230 262 285 298 308 289 278 259 181 278
36 48 49 53 55 69 81 88 91 88 89 99 94 92 94 107 108 100 101 109 124 116 101 124 150 138 194 193 210 250 264 275 279 307 271 285 289 291